User: anonymous   Login
Location: Unspecified
(0.0000°N, 0.0000°E)
Time: 13:53:44
(UTC+01:00)
Language:

Ariane H10 - Orbit

View from above orbital plane
View from above orbital plane
View from above satellite
View from above satellite

Ground track
Ground track

The orbit data is extracted from the following two-line orbital elements,

1 19122U 88040B   14303.90678154  .00001222  00000-0  62739-2 0   555
2 19122 006.9052 202.3417 7152294 092.8104 029.2897 02.32374550174530
Epoch (UTC): 30 October 2014 21:45:45
Eccentricity: 0.7152294
inclination: 6.9052°
perigee height: 478 km
apogee height: 34920 km
right ascension of ascending node: 202.3417°
argument of perigee: 92.8104°
revolutions per day: 2.32374550
mean anomaly at epoch: 29.2897°
orbit number at epoch: 17453

The dashed part of the orbit path shows where the satellite is in the earth's shadow,  

DLR